Weather History for PHNY - November, 2011

Change the Weather History Date:

Tuesday, November 22, 2011

  Actual Average Record
Temperature  
Mean Temperature 70 °F -  
Max Temperature 77 °F 79 °F 86 °F (2014)
Min Temperature 64 °F 62 °F 52 °F (1980)
Cooling Degree Days 6    
Growing Degree Days 20 (Base 50)    
Moisture  
Dew Point 63 °F    
Average Humidity 77    
Maximum Humidity 94    
Minimum Humidity 55    
Precipitation  
Precipitation 0.00 in - - ()
Sea Level Pressure  
Sea Level Pressure 30.12 in    
Wind  
Wind Speed 12 mph (NE)    
Max Wind Speed 29 mph    
Max Gust Speed 32 mph    
Visibility 8 miles    
Events      
Averages and records for this station are not official NWS values.
T = Trace of Precipitation, MM = Missing Value Source: NWS Daily Summary

Daily Weather History Graph

Daily Weather History Graph

Search for Another Location

Airport or City:

Trip Planner

Search our weather history database for the weather conditions in past years. The results will help you decide how hot, cold, wet, or windy it might be!

Date:

Astronomy

Nov. 22, 2011 Rise Set
Actual Time 6:42 AM HST 5:45 PM HST
Civil Twilight 6:18 AM HST 6:09 PM HST
Nautical Twilight 5:51 AM HST 6:36 PM HST
Astronomical Twilight 5:24 AM HST 7:03 PM HST
Moon 4:00 AM HST (11/22) 3:42 PM HST (11/22)
Length of Visible Light 11h 50m
Length of Day
11h 03m
Waning Crescent, 8% of the Moon is Illuminated
Nov 22
Waning Crescent
Nov 24
New
Dec 1
First Quarter
Dec 10
Full
Dec 17
Last Quarter

Hourly Weather History & Observations

Time (HST) Temp. Dew Point Humidity Pressure Visibility Wind Dir Wind Speed Gust Speed Precip Events Conditions
12:56 AM 66.9 °F 63.9 °F 90% 30.09 in 10.0 mi NNE 8.1 mph - N/A   Clear
1:56 AM 66.9 °F 63.9 °F 90% 30.08 in 10.0 mi NNE 9.2 mph - N/A   Clear
2:56 AM 66.9 °F 63.0 °F 87% 30.06 in 10.0 mi NE 6.9 mph - N/A   Clear
3:56 AM 64.9 °F 61.9 °F 90% 30.06 in 10.0 mi East 6.9 mph - N/A   Clear
4:56 AM 65.8 °F 63.0 °F 90% 30.06 in 10.0 mi NE 8.1 mph - N/A   Clear
5:56 AM 66.9 °F 63.0 °F 87% 30.08 in 10.0 mi NNE 12.7 mph - N/A   Partly Cloudy
6:56 AM 66.9 °F 63.9 °F 90% 30.11 in 10.0 mi East 5.8 mph - N/A   Partly Cloudy
7:56 AM 71.6 °F 64.4 °F 78% 30.17 in 10.0 mi Calm Calm - N/A   Partly Cloudy
8:32 AM 73.4 °F 64.4 °F 73% 30.18 in 6.0 mi NE 8.1 mph - N/A   Haze
8:56 AM 72.9 °F 63.9 °F 73% 30.13 in 10.0 mi NE 13.8 mph - N/A   Scattered Clouds
9:56 AM 72.0 °F 63.0 °F 73% 30.13 in 7.0 mi ENE 16.1 mph - N/A   Partly Cloudy
10:42 AM 73.4 °F 64.4 °F 73% 30.18 in 1.8 mi Calm Calm - N/A   Haze
10:56 AM 75.2 °F 62.6 °F 65% 30.17 in 7.0 mi Calm Calm - N/A   Scattered Clouds
11:05 AM 77.0 °F 64.4 °F 65% 30.17 in 2.5 mi NNE 9.2 mph - N/A   Haze
11:14 AM 75.2 °F 64.4 °F 69% 30.17 in 6.0 mi NNE 9.2 mph - N/A   Haze
11:33 AM 77.0 °F 64.4 °F 65% 30.16 in 5.0 mi NNE 13.8 mph - N/A   Haze
11:56 AM 77.9 °F 63.0 °F 60% 30.09 in 8.0 mi NNE 18.4 mph - N/A   Partly Cloudy
12:56 PM 77.9 °F 63.0 °F 60% 30.06 in 9.0 mi NE 25.3 mph - N/A   Clear
1:56 PM 77.0 °F 61.9 °F 59% 30.04 in 10.0 mi NE 25.3 mph - N/A   Clear
2:56 PM 77.0 °F 59.9 °F 55% 30.05 in 10.0 mi NE 20.7 mph - N/A   Clear
3:56 PM 74.8 °F 59.9 °F 60% 30.06 in 10.0 mi ENE 20.7 mph - N/A   Clear
4:56 PM 72.0 °F 61.0 °F 68% 30.08 in 10.0 mi NE 16.1 mph - N/A   Clear
5:56 PM 68.9 °F 61.0 °F 76% 30.10 in 10.0 mi ENE 9.2 mph - N/A   Clear
6:56 PM 68.0 °F 63.0 °F 84% 30.11 in 10.0 mi NE 18.4 mph - N/A   Clear
7:56 PM 68.0 °F 61.9 °F 81% 30.13 in 10.0 mi NE 15.0 mph - N/A   Clear
8:56 PM 68.0 °F 63.0 °F 84% 30.13 in 10.0 mi NE 23.0 mph - N/A   Clear
9:56 PM 68.9 °F 63.0 °F 81% 30.13 in 10.0 mi ENE 24.2 mph - N/A   Partly Cloudy
10:25 PM 66.2 °F 64.4 °F 94% 30.18 in 2.5 mi NE 20.7 mph - N/A   Partly Cloudy
10:36 PM 66.2 °F 64.4 °F 94% 30.17 in 5.0 mi NE 28.8 mph 32.2 mph N/A   Partly Cloudy
10:56 PM 66.2 °F 64.4 °F 94% 30.18 in 10.0 mi NE 24.2 mph - N/A   Partly Cloudy
11:56 PM 66.9 °F 63.9 °F 90% 30.10 in 10.0 mi NE 28.8 mph - N/A   Clear